This demonstration page uses our WeatherBlox Daily Observations layout. Learn more.

Left ArrowRight Arrow

39.08367, -84.50855

Hourly Observations for September 8, 2017

Temp ( °F °C ) Dew Point ( °F °C ) Humidity (%) Winds ( mph kmh ) Pressure ( in mb ) Visibility ( mi km ) Precip ( " mm )
12:53 am 00:53 Clear 51 10.6 51 10.6 100 100 N N/A 30.14 1021 10 16 N/A
1:53 am 01:53 Clear 52 11.1 51 10.6 97 97 N N/A 30.15 1021 10 16 N/A
2:53 am 02:53 Clear 50 10 50 10 100 100 N N/A 30.16 1021 10 16 N/A
3:53 am 03:53 Cloudy 53 11.7 52 11.1 96 96 N N/A 30.17 1022 10 16 N/A
4:53 am 04:53 Clear 51 10.6 50 10 96 96 N N/A 30.18 1022 10 16 N/A
5:53 am 05:53 Clear 49 9.4 49 9.4 100 100 N N/A 30.19 1022 10 16 N/A
6:00 am 06:00 Clear with Mist and Fog 48 8.9 48 8.9 100 100 N N/A 30.18 1022 2 3 N/A
6:38 am 06:38 Clear with Mist and Fog 49 9.4 49 9.4 100 100 N N/A 30.21 1023 3 5 N/A
6:53 am 06:53 Clear with Patchy Fog 48 8.9 48 8.9 100 100 N N/A 30.20 1023 10 16 N/A
7:53 am 07:53 Sunny with Patchy Fog 47 8.3 47 8.3 100 100 N N/A 30.22 1023 10 16 N/A
8:53 am 08:53 Sunny 56 13.3 53 11.7 90 90 N N/A 30.22 1024 10 16 N/A
9:53 am 09:53 Sunny 62 16.7 54 12.2 75 75 VRB 3 6 30.24 1024 10 16 N/A
10:53 am 10:53 Sunny 66 18.9 54 12.2 65 65 S 5 7 30.24 1024 10 16 N/A
11:53 am 11:53 Sunny 70 21.1 53 11.7 55 55 WSW 6 9 30.24 1024 10 16 N/A
12:53 pm 12:53 Sunny 72 22.2 51 10.6 48 48 VRB 3 6 30.24 1024 10 16 N/A
1:53 pm 13:53 Mostly Sunny 73 22.8 49 9.4 43 43 VRB 5 7 30.24 1024 10 16 N/A
2:53 pm 14:53 Partly Cloudy 76 24.4 51 10.6 42 42 WNW 9 15 30.23 1024 10 16 N/A
3:53 pm 15:53 Mostly Cloudy 75 23.9 52 11.1 45 45 NW 6 9 30.22 1023 10 16 N/A
4:53 pm 16:53 Partly Cloudy 72 22.2 56 13.3 57 57 S 3 6 30.20 1023 10 16 N/A
5:53 pm 17:53 Mostly Sunny 74 23.3 53 11.7 48 48 N N/A 30.20 1023 10 16 N/A
6:53 pm 18:53 Mostly Sunny 71 21.7 59 15 66 66 SSE 3 6 30.20 1023 10 16 N/A
7:53 pm 19:53 Mostly Cloudy 66 18.9 59 15 78 78 N N/A 30.21 1023 10 16 N/A
8:53 pm 20:53 Cloudy 65 18.3 60 15.6 84 84 N N/A 30.22 1023 10 16 N/A
9:53 pm 21:53 Partly Cloudy 63 17.2 55 12.8 76 76 NNE 6 9 30.24 1024 10 16 N/A
10:53 pm 22:53 Mostly Cloudy 60 15.6 56 13.3 86 86 N N/A 30.25 1025 10 16 N/A
11:53 pm 23:53 Cloudy 58 14.4 56 13.3 93 93 N N/A 30.27 1025 10 16 N/A

Powered by AerisWeather